Location: Peebles
(55.6412°N, 3.1714°W)
Time: 17:48:57
(UTC+01:00)

USA 281 - Pass Details

Date: 31 January 2022
Orbit: 1070 x 1089 km, 106.0° (Epoch: 25 March)

Event Time Altitude Azimuth Distance (km) Brightness Sun altitude
Rises 06:09:08 0° 43° (NE) 3,901 6.7 -16.6°
Reaches altitude 10° 06:12:27 10° 27° (NNE) 2,946 5.7 -16.2°
Maximum altitude 06:16:44 19° 346° (NNW) 2,359 4.8 -15.6°
Enters shadow 06:19:48 14° 314° (NW) 2,674 4.8 -15.1°
